Location: Unspecified
(0.0000°N, 0.0000°E)
Time: 11:13:12
(UTC+00:00)

Explorer 11/Cluster Stage 4 - Pass Details

Date: 07 October 2020
Orbit: 467 x 1258 km, 28.8° (Epoch: 28 October)

Event Time Altitude Azimuth Distance (km) Brightness Sun altitude
Rises 04:51:22 0° 300° (WNW) 3,634 - -14.0°
Reaches altitude 10° 04:53:50 10° 299° (WNW) 2,794 - -13.4°
Exits shadow 04:54:40 14° 299° (WNW) 2,518 8.6 -13.2°
Maximum altitude 05:00:54 86° 211° (SSW) 1,157 7.4 -11.7°
Drops below altitude 10° 05:09:05 10° 122° (ESE) 3,209 10.8 -9.6°
Sets 05:12:06 0° 122° (ESE) 4,198 11.6 -8.9°
